TimeEST,TemperatureF,Dew PointF,Humidity,Sea Level PressureIn,VisibilityMPH,Wind Direction,Wind SpeedMPH,Gust SpeedMPH,PrecipitationIn,Events,Conditions,WindDirDegrees,DateUTC
12:51 AM,46.0,43.0,89,30.05,6.0,South,9.2,-,N/A,,Overcast,170,2012-12-03 05:51:00
1:51 AM,46.0,44.1,93,30.05,5.0,South,9.2,-,0.00,,Overcast,180,2012-12-03 06:51:00
2:51 AM,46.0,44.1,93,30.08,5.0,South,5.8,-,0.00,,Overcast,190,2012-12-03 07:51:00
3:51 AM,46.0,44.1,93,30.11,5.0,SSW,3.5,-,0.00,,Overcast,200,2012-12-03 08:51:00
4:20 AM,46.4,44.6,93,30.11,5.0,Calm,Calm,-,N/A,,Overcast,0,2012-12-03 09:20:00
4:43 AM,48.2,42.8,82,30.11,10.0,West,6.9,-,N/A,,Mostly Cloudy,280,2012-12-03 09:43:00
4:51 AM,48.9,43.0,80,30.12,10.0,WNW,6.9,-,N/A,,Overcast,300,2012-12-03 09:51:00
5:51 AM,48.9,42.1,77,30.15,10.0,West,4.6,17.3,N/A,,Mostly Cloudy,280,2012-12-03 10:51:00
6:51 AM,48.0,41.0,77,30.17,10.0,West,11.5,17.3,N/A,,Mostly Cloudy,280,2012-12-03 11:51:00
7:32 AM,46.4,41.0,81,30.19,10.0,WNW,10.4,-,N/A,,Mostly Cloudy,290,2012-12-03 12:32:00
7:51 AM,46.9,39.9,77,30.20,10.0,WNW,11.5,-,N/A,,Mostly Cloudy,290,2012-12-03 12:51:00
8:45 AM,46.4,39.2,76,30.21,10.0,West,9.2,-,N/A,,Overcast,280,2012-12-03 13:45:00
8:51 AM,46.9,39.9,77,30.22,10.0,WNW,10.4,18.4,N/A,,Overcast,290,2012-12-03 13:51:00
9:51 AM,48.0,39.9,74,30.24,10.0,WNW,12.7,-,N/A,,Overcast,300,2012-12-03 14:51:00
10:51 AM,48.0,39.9,74,30.25,10.0,WNW,6.9,-,N/A,,Overcast,290,2012-12-03 15:51:00
11:51 AM,48.0,39.9,74,30.24,10.0,WNW,8.1,-,N/A,,Overcast,290,2012-12-03 16:51:00
12:51 PM,48.0,39.9,74,30.25,10.0,WNW,5.8,-,N/A,,Overcast,290,2012-12-03 17:51:00
1:51 PM,48.0,39.0,71,30.22,10.0,NW,10.4,-,N/A,,Overcast,320,2012-12-03 18:51:00
2:51 PM,48.0,39.0,71,30.23,10.0,NW,9.2,-,N/A,,Overcast,320,2012-12-03 19:51:00
3:42 PM,46.4,39.2,76,30.24,10.0,WNW,9.2,-,N/A,,Mostly Cloudy,290,2012-12-03 20:42:00
3:51 PM,45.0,37.9,76,30.25,10.0,WNW,8.1,-,N/A,,Mostly Cloudy,290,2012-12-03 20:51:00
4:51 PM,43.0,37.0,80,30.25,10.0,WNW,4.6,-,N/A,,Scattered Clouds,290,2012-12-03 21:51:00
5:51 PM,41.0,36.0,82,30.27,10.0,Calm,Calm,-,N/A,,Partly Cloudy,0,2012-12-03 22:51:00
6:51 PM,34.0,32.0,92,30.28,9.0,Calm,Calm,-,N/A,,Partly Cloudy,0,2012-12-03 23:51:00
7:51 PM,34.0,33.1,96,30.28,7.0,Calm,Calm,-,N/A,,Clear,0,2012-12-04 00:51:00
8:51 PM,34.0,33.1,96,30.28,6.0,Calm,Calm,-,N/A,,Clear,0,2012-12-04 01:51:00
9:51 PM,30.0,28.9,96,30.29,8.0,Calm,Calm,-,N/A,Fog,Shallow Fog,0,2012-12-04 02:51:00
10:51 PM,30.0,28.9,96,30.29,7.0,Calm,Calm,-,N/A,Fog,Patches of Fog,0,2012-12-04 03:51:00
11:51 PM,30.9,30.0,96,30.28,10.0,Calm,Calm,-,N/A,Fog,Shallow Fog,0,2012-12-04 04:51:00